Find Starlink 11479

NORAD ID: 62270 Int'l Des: 2024-237 Owner: SPXS Country: US Constellation: starlink operational
又名: STARLINK-11479 [DTC] celestrak
LEOCIRCULAR

当前视图

正在加载3D地球...

About Starlink 11479

Starlink 11479 (NORAD 62270) is a starlink constellation satellite (v2 mini d2c) launched Dec 8, 2024 by SPXS of US. It operates in LEO, CIRCULAR orbit with a mass of 960.00 kg.

即将过境

Passes for default location (London). Set your location on the main map for personalized predictions.

高度历史

Loading altitude history...

两行轨道根数

1 62270U 24237D 26251.75722964 .00010729 00000-0 86909-4 0 9998
2 62270 43.0024 33.1752 0002306 268.6506 91.4097 15.70864187101848
Epoch: Sep 8, 2026 • Age: 46 hours

当前状态

高度 356.2 km
远地点 / 近地点 N/A
速度 7.70 km/s
星下点 20.44°N, 174.13°E
发射日期 Dec 8, 2024
运行时间 1.7 years
类型 internet

技术详情

分类 Payload
质量 960.00 kg
干质量 910.00 kg
总质量 960.00 kg
长度 0.30 m
直径 4.10 m
跨度 29.00 m
形状 Box + pan
制造商 SPXS
平台类型 Starlink V2MD
阶段状态 In Orbit
所有者/国家 SPXS/US

Most Searched